Weather Roundup
Issued by NWS

Home | Current Version | Previous Version | Graphics & Text | Print | Product List | Glossary Off
Versions: 1 2 3 4 5 6 7 8 9 10 11 12 13 14 15 16 17 18 19 20 21 22 23 24 25 26 27 28 29 30 31 32 33 34 35 36 37 38 39 40 41 42 43 44 45 46 47 48 49 50

000
NZUS93 KARX 050859
HRRWXR

CURRENT HOURLY OBSERVATIONS ACROSS
MUCH OF THE UPPER MISSISSIPPI VALLEY
NATIONAL WEATHER SERVICE LA CROSSE WI
400 AM CDT SUN JUL 05 2015


...SOUTHEAST MINNESOTA...


CITY           SKY/WX    TMP DP  RH WIND       PRES   REMARKS
ROCHESTER      CLEAR     61  58  90 S7        29.99S
ROCHESTER/MAYO FAIR      65  59  81 S6        29.98S
WINONA         CLEAR     64  61  88 CALM      29.98S
AUSTIN         CLEAR     63  57  82 S3        29.97F
ALBERT LEA     CLEAR     64  59  82 S9        29.96F
DODGE CENTER   CLEAR     64  59  82 S13       29.97F
PRESTON        CLEAR     61  57  88 S7        30.00S
OWATONNA       CLEAR     64  57  77 S10       29.95F
FARIBAULT      CLEAR     64  61  88 S6        29.95S
$$

...ELSEWHERE IN MINNESOTA...


CITY           SKY/WX    TMP DP  RH WIND       PRES   REMARKS
MINNEAPOLIS    CLEAR     70  60  70 S7        29.93S
INTNL FALLS    LGT RAIN  66  62  87 SW5       29.83R
DULUTH         PTCLDY    57  53  86 CALM      29.94R
RED WING       CLEAR     68  59  73 S6        29.95R
REDWOOD FALLS  PTCLDY    64  60  87 SE9       29.87F
MANKATO        CLEAR     64  57  77 S7        29.93S
WORTHINGTON    MOCLDY    66  57  72 S15G21    29.89F
FAIRMONT       PTCLDY    63  55  77 S9        29.92S
$$

...SOUTHWEST WISCONSIN...


CITY           SKY/WX    TMP DP  RH WIND       PRES   REMARKS
LA CROSSE      CLEAR     66  63  90 SE7       29.99S
PRAIRIE DU CHI CLEAR     61  58  91 E3        30.00F
BOSCOBEL       FOG       58  56  93 CALM      30.02S VSB 1/4
LONE ROCK      NOT AVBL
PLATTEVILLE    CLEAR     62  60  94 SE6       30.03F
FORT MC COY    CLEAR     56  54  95 CALM      30.01S
CAMP DOUGLAS   CLEAR     59  59 100 CALM      30.01S FOG
VIROQUA        FAIR      64  60  85 S6        30.02F
WIS DELLS      CLEAR     60  57  91 S3        30.03F
$$

...ELSEWHERE IN WISCONSIN...


CITY           SKY/WX    TMP DP  RH WIND       PRES   REMARKS
MILWAUKEE      PTCLDY    66  56  70 CALM      30.05S
MADISON        CLEAR     63  59  87 CALM      30.03F
GREEN BAY      CLEAR     63  60  90 S3        30.01F FOG
EAU CLAIRE     CLEAR     67  61  81 S8        29.95S
BLACK RVR FLS    N/A     56  56 100 CALM      29.99R FOG
MEDFORD        CLEAR     62  62  97 S6        30.00S FOG
WAUSAU         CLEAR     63  61  93 S3        29.99F FOG
WIS RAPIDS     PTCLDY    64  60  87 S5        30.02S
MARSHFIELD     CLEAR     62  58  86 SW5       30.01S FOG
RICE LAKE      CLEAR     65  61  89 CALM      29.97R FOG
$$

...NORTHEAST IOWA...


CITY           SKY/WX    TMP DP  RH WIND       PRES   REMARKS
DECORAH          N/A    N/A N/A N/A MISG        N/A
MASON CITY     CLEAR     59  57  93 S8        29.98F
CHARLES CITY   CLEAR     61  61 100 S6        30.00S
OELWEIN          N/A     61  59  94 S6        30.02S
$$

...ELSEWHERE IN IOWA...


CITY           SKY/WX    TMP DP  RH WIND       PRES   REMARKS
DES MOINES     CLEAR     65  59  81 SE7       29.99S
IOWA CITY      CLEAR     62  60  93 CALM      30.03F
FORT DODGE     CLEAR     64  57  77 S7        29.96F
$$

...NORTHERN ILLINOIS...


CITY           SKY/WX    TMP DP  RH WIND       PRES   REMARKS
CHICAGO-OHARE  PTCLDY    62  59  90 CALM      30.06R SMOKE
CHICAGO-MIDWAY PTCLDY    68  60  75 CALM      30.06R
MOLINE         CLEAR     64  59  83 CALM      30.03F
ROCKFORD       CLEAR     62  58  86 CALM      30.06F
PEORIA         CLEAR     65  60  84 CALM      30.06S HAZE
$$

NOTE: "FAIR" INDICATES FEW OR NO CLOUDS BELOW 12,000 FEET WITH NO
SIGNIFICANT WEATHER AND/OR OBSTRUCTIONS TO VISIBILITY. WIND
SPEEDS ARE IN MILES-PER-HOUR.



USA.gov is the U.S. government's official web portal to all federal, state and local government web resources and services.